www.pogodaiklimat.ru

Погода и климат >> Архив погоды >> Антарктида >> Дюмон-д`Юрвиль


ПОГОДА на Дюмон-д`Юрвиле

  • Прогноз погоды на Дюмон-д`Юрвиле
  • Монитор погоды на Дюмон-д`Юрвиле

АРХИВ ПОГОДЫ на Дюмон-д`Юрвиле

Время (UTC), дата Ветер
(напр.,м/с)
 
Видим.   Явления Облачность Т
(С)
Тd
(С)
f
(%)
Тe
(С)
Тes
(С)
Комфортность P
(гПа)
Po
(гПа)
Тmin
(С)
Tmax
(С)
R
(мм)
R24
(мм)
S
(см)
06 19.06 В 2 10 км 10/10 1000 м
[Sc Ac As]
-14.9 -18.3 75 -19 -19 1000.6 994.9
09 19.06 В 3 10 км 10/0
[Ac As]
-16.0 -19.4 75 -23 -23 1000.7 995.0
12 19.06 В 8 н/о н/о -16.5 -19.9 75 -28 -28 1000.1 994.4 -16.5 -14.5
15 19.06 В 9
{16}
н/о н/о -17.8 -20.6 79 -30 -30 998.5 992.8
18 19.06 В 9
{17}
н/о н/о -17.4 -20.2 79 -29 -29 996.7 991.0
21 19.06 В 7
{15}
1500 м 10/10 480 м
[]
-15.9 -18.4 81 -26 -26 994.6 988.9
00 20.06 СВ 5
{15}
400 м снег 10/10 90 м
[Frnb]
-16.2 -18.7 81 -25 -25 994.0 988.3 -17.9 -14.2
03 20.06 СЗ 2 2000 м снег 10/10 180 м
[Frnb]
-16.2 -18.7 81 -20 -20 994.1 988.4
06 20.06 З 5 3000 м слаб. снег 10/10 400 м
[Frnb]
-17.3 -19.9 80 -27 -27 994.1 988.4
09 20.06 З 3 10 км {снег} 4/0
[Ac lent Ci fib]
-16.0 -18.7 80 -23 -23 994.0 988.3
12 20.06 ЮВ 4 н/о н/о -16.7 -20.2 74 -24 -24 993.9 988.2 -18.2 -15.7
15 20.06 Ю 6 н/о н/о -15.2 -19.3 71 -25 -25 993.5 987.9
18 20.06 Ю 7 н/о н/о -18.0 -23.3 63 -29 -29 993.2 987.5
21 20.06 ЮВ 4 30 км ясно -17.6 -23.1 62 -26 -26 992.6 986.9
00 21.06 Ю 4 50 км 1/0
[Ac trans]
-18.6 -24.6 59 -27 -27 991.9 986.2 -19.5 -15.2
03 21.06 Ю 1 30 км 3/1 1200 м
[Sc Ac trans Ci]
-20.1 -26.6 56 -23 -23 989.6 983.9
06 21.06 штиль 0 30 км 6/0
[Ac trans Ci]
-19.8 -27.4 51 -20 -20 985.6 979.9
09 21.06 В 7 30 км 10/0
[Ac As]
-22.0 -25.5 73 -34 -34 опасность
обморожения
981.9 976.2
12 21.06 В 5 н/о н/о -21.1 -24.1 77 -32 -32 опасность
обморожения
977.5 971.8 -22.4 -18.2
15 21.06 В 4 н/о н/о -22.0 -25.1 76 -32 -32 опасность
обморожения
974.3 968.6
18 21.06 В 1 н/о н/о -20.8 -24.8 70 -24 -24 972.6 967.0
21 21.06 В 3 20 км 9/0
[]
-20.3 -23.9 73 -28 -28 971.0 965.4
00 22.06 СВ 2 1000 м слаб. снег 10/10 1500 м
[Sc]
-19.8 -23.1 75 -25 -25 968.1 962.5 -22.3 -19.7
03 22.06 З 1 4000 м слаб. снег 10/10 1200 м
[Sc]
-20.9 -24.0 76 -24 -24 967.0 961.4
06 22.06 В 8-14
{20}
4000 м метель {снег} 8/0
[Ac lent Ci fib]
-18.5 -23.1 67 -31 -31 опасность
обморожения
969.5 963.9
09 22.06 З 3 30 км {метель} 3/0
[Ci fib]
-18.9 -26.3 52 -26 -26 973.0 967.4
12 22.06 ЮВ 7 н/о н/о -20.5 -28.7 48 -32 -32 опасность
обморожения
974.2 968.6 -21.7 -17.6
15 22.06 Ю 15-23
{23}
н/о н/о -25.0 -28.3 74 -43 -43 опасность
обморожения
976.7 970.9
18 22.06 ЮВ 7
{36}
н/о н/о -27.2 -30.7 72 -41 -41 опасность
обморожения
981.7 975.9
21 22.06 Ю 29-41
{45}
<100 м ?/? -24.8 -28.1 74 -47 -47 опасность
обморожения
980.6 974.8
00 23.06 Ю 8-19
{45}
100 м сильная метель ?/? -23.3 -26.5 75 -37 -37 опасность
обморожения
988.4 982.6 -28.2 -20.1
03 23.06 В 7
{46}
20 км метель 3/3 1000 м
[Sc]
-20.2 -23.2 77 -32 -32 опасность
обморожения
994.3 988.6
06 23.06 ЮЗ 7
{46}
30 км {метель} ясно -21.8 -25.0 75 -34 -34 опасность
обморожения
994.1 988.3
09 23.06 ЮВ 7
{14}
20 км 1/0
[Ci]
-20.5 -23.5 77 -32 -32 опасность
обморожения
992.3 986.6
12 23.06 ЮВ 9
{18}
н/о н/о -21.4 -24.4 77 -35 -35 опасность
обморожения
990.3 984.5 -23.2 -19.6
15 23.06 СВ 4 н/о н/о -23.1 -26.6 73 -32 -32 опасность
обморожения
989.7 983.9
18 23.06 С 2 н/о н/о -22.9 -26.1 75 -29 -29 988.2 982.4
21 23.06 ЮВ 6 20 км ясно -22.4 -25.6 75 -34 -34 опасность
обморожения
985.6 979.9
00 24.06 В 5 25 км 1/0
[Ci]
-23.3 -26.8 73 -34 -34 опасность
обморожения
982.5 976.7 -23.6 -20.9
03 24.06 С 3 15 км 3/0
[Ci]
-23.9 -27.8 70 -32 -32 опасность
обморожения
978.5 972.8
06 24.06 З 5
{29}
500 м сильная метель ?/? -19.1 -22.1 77 -29 -29 976.5 970.9
09 24.06 ЮВ 25-37
{42}
100 м сильная метель ?/? -18.7 -21.4 79 -37 -37 опасность
обморожения
973.4 967.8
12 24.06 СЗ 11
{42}
н/о н/о -18.2 -20.8 80 -32 -32 опасность
обморожения
979.8 974.2 -24.2 -14.0
15 24.06 ЮВ 3 н/о н/о -20.1 -22.9 78 -28 -28 983.1 977.4
18 24.06 Ю 9-15
{16}
н/о н/о -22.2 -26.0 71 -36 -36 опасность
обморожения
983.9 978.2
21 24.06 Ю 3 40 км 1/0
[]
-24.5 -28.6 69 -32 -32 опасность
обморожения
986.5 980.7
00 25.06 С 3
{20}
6000 м 1/0
[Ci fib]
-24.8 -28.4 72 -34 -34 опасность
обморожения
986.6 980.8 -26.0 -18.3
03 25.06 СВ 3 12 км 3/0
[Ci fib]
-25.1 -28.8 71 -33 -33 опасность
обморожения
986.4 980.6
06 25.06 Ю 2 10 км 1/0
[Ci fib]
-24.2 -28.1 70 -30 -30 986.7 980.9
09 25.06 З 2 25 км ясно -23.3 -28.2 64 -30 -30 985.6 979.8
12 25.06 ЮВ 7 н/о н/о -21.4 -27.9 56 -34 -34 опасность
обморожения
983.4 977.7 -26.1 -21.4
15 25.06 В 4 н/о н/о -22.1 -28.3 57 -31 -31 опасность
обморожения
981.9 976.2
18 25.06 Ю 7 н/о н/о -21.7 -28.1 56 -34 -34 опасность
обморожения
980.7 975.0
21 25.06 Ю 8
{18}
30 км ясно -21.8 -27.1 62 -35 -35 опасность
обморожения
980.1 974.4
00 26.06 ЮВ 7
{18}
30 км 1/0
[Ci fib]
-22.2 -29.0 54 -34 -34 опасность
обморожения
980.1 974.4 -24.2 -21.1
03 26.06 В 2 40 км 1/0
[Ci fib]
-23.1 -30.0 53 -28 -28 978.9 973.2

 

Местоположение метеостанции Дюмон-д`Юрвиль (Антарктида): широта -66.66 долгота 140.01 высота над уровнем моря 43 м.

В архиве по умолчанию представлена погода на Дюмон-д`Юрвиле за последнюю неделю. Архивные данные за месяц целиком и за предыдущие месяцы, начиная с января 2011 года, Вы можете получить, выбрав интересующий диапазон дат из раскрывающегося списка и нажав кнопку "Ввод!".


*Определитесь, кто Вы:
робот инопланетянин человек

Внимание! Время в таблицах - всемирное. Для получения местного времени необходимо прибавить поправку, которая равна 0 ч.

Смотрите также архив погоды в соседних городах и на ближайших метеорологических станциях:

Погода на D-47 (Антарктида) (98 км)
Погода в Sitry Point (Антарктида) (651 км)
Погода на Mid Point (Антарктида) (691 км)
Погода на Ленинградской (Антарктида) (860 км)
Погода на Dome C II (Антарктида) (1110 км)
Погода на Острове Маккуори (Тасмания, Австралия) (1688 км)

Пояснения к столбцам:

Ветер - указаны скорость ветра в м/с - средняя за 10 мин, порывы в срок и между сроками (в фигурных скобках) и направление, откуда дует ветер: С - северный, СВ - северо-восточный, В - восточный, ЮВ - юго-восточный, Ю - южный, ЮЗ - юго-западный, З - западный, СЗ - северо-западный.
Видимость - горизонтальная дальность видимости в метрах или километрах. При видимости от 1 до 10 км при отсутствии осадков обычно наблюдается дымка, при ухудшении видимости до 1 км и менее - туман. В сухую погоду видимость может ухудшаться дымом, пылью или мглою.
Явления - указаны атмосферные явления, наблюдавшиеся в срок или в последний час перед сроком; фигурными скобками обозначены явления, наблюдавшиеся между сроками (за 1-3 часа до срока); квадратными скобками обозначены град или гололедные отложения с указанием их диаметра в мм.
Облачность - указаны через наклонную черту общая и нижняя облачность в баллах и высота нижней границы облаков в метрах; квадратными скобками обозначены формы облаков: Ci - перистые, Cs - перисто-слоистые, Cc - перисто-кучевые, Ac - высококучевые, As - высокослоистые, Sc - слоисто-кучевые, Ns - слоисто-дождевые, Cu - кучевые, Cb - кучево-дождевые. Подробнее классификацию облаков см. в Атласе облаков (PDF).
T - Температура воздуха - температура, измеренная на высоте 2 м над землей.
Td - Температура точки росы - температура, при понижении до которой содержащийся в воздухе водяной пар достигнет насыщения.
f - Относительная влажность воздуха - влажноcть воздуха, измеренная на высоте 2 м над землей.
Te - Эффективная температура - температура, которую ощущает одетый по сезону человек в тени. Характеристика душности погоды. При расчете учитывается влияние влажности воздуха и скорости ветра на теплоощущения человека.
Tes - Эффективная температура на солнце - температура, которую ощущает человек, с поправкой на солнечный нагрев. Характеристика знойности погоды. Зависит от высоты солнца над горизонтом, облачности и скорости ветра. Ночью, в пасмурную погоду, а также при ветре 12 м/с и более поправка равна нулю.
P - Атмосферное давление - приведенное к уровню моря атмосферное давление.
Po - Атмосферное давление - измеренное на уровне метеостанции атмосферное давление.
Tmin - Минимальная температура - минимум температуры воздуха на высоте 2 м над землей.
Tmax - Максимальная температура - максимум температуры воздуха на высоте 2 м над землей.
R - Количество осадков - Количество выпавших осадков за период времени, мм. При наведении курсора мыши на число - период времени, за который выпало указанное количество осадков.
R24 - Количество осадков - Количество выпавших осадков за 24 часа, мм.
S - Снежный покров - Высота снежного покрова, см. При наведении курсора мыши на число - состояние снежного покрова и степень покрытия местности в баллах.